Franklin, NC

12:24 AM EDT on May 01, 2017 (GMT -0400)
Franklin

Weather History for K1A5 - April, 2013

Change the Weather History Date:

Monday, April 1, 2013

  Actual Average (KTOC) Record (KTOC)
Temperature  
Mean Temperature 49 °F -  
Max Temperature 61 °F 71 °F 86 °F (2014)
Min Temperature 37 °F 44 °F 48 °F (2014)
Degree Days  
Heating Degree Days 16    
Moisture  
Dew Point 38 °F    
Average Humidity 65    
Maximum Humidity 99    
Minimum Humidity 36    
Precipitation  
Precipitation 0.00 in - - ()
Sea Level Pressure  
Sea Level Pressure 29.96 in    
Wind  
Wind Speed 4 mph (NNW)    
Max Wind Speed 14 mph    
Max Gust Speed 24 mph    
Visibility 8 miles    
Events Fog , Rain    
Averages and records for this station are not official NWS values.
T = Trace of Precipitation, MM = Missing Value Source: NWS Daily Summary

Daily Weather History Graph

Daily Weather History Graph

Search for Another Location

Airport or City:

Trip Planner

Search our weather history database for the weather conditions in past years. The results will help you decide how hot, cold, wet, or windy it might be!

Date:

Astronomy

Apr. 01, 2013 Rise Set
Actual Time 7:20 AM EDT 7:55 PM EDT
Civil Twilight 6:54 AM EDT 8:20 PM EDT
Nautical Twilight 6:24 AM EDT 8:51 PM EDT
Astronomical Twilight 5:53 AM EDT 9:21 PM EDT
Moon 12:52 AM EDT 11:15 AM EDT
Length of Visible Light 13h 26m
Length of Day
12h 35m
Waning Gibbous, 67% of the Moon is Illuminated
Apr 1
Waning Gibbous
Apr 3
Last Quarter
Apr 10
New
Apr 18
First Quarter
Apr 25
Full

Hourly Weather History & Observations

Time (EDT) Temp. Dew Point Humidity Pressure Visibility Wind Dir Wind Speed Gust Speed Precip Events Conditions
12:15 AM 51.4 °F 51.3 °F 99% 29.89 in 4.0 mi Calm Calm - 0.03 in Rain Rain
1:15 AM 53.1 °F 51.3 °F 94% 29.89 in 10.0 mi North 9.2 mph - N/A   Overcast
1:35 AM 52.3 °F 50.5 °F 94% 29.88 in 7.0 mi NW 5.8 mph - N/A   Light Drizzle
1:55 AM 52.5 °F 50.5 °F 93% 29.89 in 10.0 mi NW 5.8 mph - N/A   Overcast
2:15 AM 52.7 °F 48.6 °F 86% 29.89 in 10.0 mi NNW 6.9 mph - N/A   Overcast
2:35 AM 52.7 °F 47.3 °F 82% 29.89 in 10.0 mi NW 5.8 mph - N/A   Overcast
3:15 AM 51.4 °F 45.0 °F 79% 29.89 in 10.0 mi NNW 6.9 mph - N/A   Scattered Clouds
3:35 AM 51.1 °F 44.4 °F 78% 29.88 in 10.0 mi North 3.5 mph - N/A   Scattered Clouds
3:55 AM 50.5 °F 43.9 °F 78% 29.89 in 10.0 mi NNW 3.5 mph - N/A   Clear
4:15 AM 49.8 °F 43.7 °F 79% 29.88 in 10.0 mi NNW 3.5 mph - N/A   Clear
4:35 AM 45.5 °F 43.5 °F 93% 29.89 in 10.0 mi Calm Calm - N/A   Clear
5:15 AM 41.0 °F 40.3 °F 97% 29.89 in 0.5 mi Calm Calm - N/A Fog Fog
5:35 AM 39.6 °F 38.8 °F 97% 29.90 in 0.2 mi Calm Calm - N/A Fog Fog
5:55 AM 38.1 °F 37.2 °F 97% 29.91 in 0.2 mi Calm Calm - N/A Fog Fog
6:15 AM 38.5 °F 37.6 °F 97% 29.91 in 0.2 mi Calm Calm - N/A Fog Fog
6:35 AM 39.2 °F 38.3 °F 97% 29.92 in 0.2 mi Calm Calm - N/A Fog Fog
6:55 AM 38.7 °F 37.8 °F 97% 29.92 in 0.5 mi Calm Calm - N/A Fog Fog
7:15 AM 38.3 °F 37.2 °F 96% 29.93 in 0.2 mi Calm Calm - N/A Fog Fog
7:55 AM 37.4 °F 36.5 °F 97% 29.96 in 0.2 mi Calm Calm - N/A Fog Fog
8:15 AM 38.3 °F 37.4 °F 97% 29.96 in 0.2 mi Calm Calm - N/A Fog Fog
8:35 AM 39.2 °F 38.3 °F 97% 29.97 in 0.2 mi Calm Calm - N/A Fog Fog
8:55 AM 41.4 °F 40.3 °F 96% 29.98 in 0.2 mi Calm Calm - N/A Fog Fog
9:15 AM 42.6 °F 41.4 °F 95% 29.99 in 0.2 mi Calm Calm - N/A Fog Fog
9:35 AM 43.3 °F 42.3 °F 96% 29.99 in 0.5 mi Calm Calm - N/A Fog Fog
10:15 AM 45.7 °F 44.4 °F 95% 29.99 in 10.0 mi Calm Calm - N/A   Overcast
10:35 AM 47.5 °F 46.4 °F 96% 29.99 in 10.0 mi Calm Calm - N/A   Scattered Clouds
10:55 AM 50.2 °F 48.2 °F 93% 29.99 in 10.0 mi Calm Calm - N/A   Clear
11:15 AM 54.5 °F 38.1 °F 54% 29.99 in 10.0 mi North 9.2 mph - N/A   Clear
11:35 AM 56.3 °F 33.8 °F 43% 29.99 in 10.0 mi North 8.1 mph 18.4 mph N/A   Clear
12:15 PM 59.2 °F 34.5 °F 40% 29.99 in 10.0 mi North 11.5 mph - N/A   Clear
12:35 PM 59.4 °F 34.9 °F 40% 29.99 in 10.0 mi North 13.8 mph 23.0 mph N/A   Clear
12:55 PM 60.3 °F 35.1 °F 39% 29.99 in 10.0 mi NNW 9.2 mph 17.3 mph N/A   Clear
1:15 PM 60.8 °F 35.1 °F 38% 29.99 in 10.0 mi North 12.7 mph 18.4 mph N/A   Clear
1:35 PM 59.9 °F 33.6 °F 37% 29.99 in 10.0 mi North 9.2 mph 21.9 mph N/A   Scattered Clouds
2:15 PM 60.4 °F 33.1 °F 36% 29.99 in 10.0 mi NNW 10.4 mph 24.2 mph N/A   Scattered Clouds
2:35 PM 60.3 °F 34.0 °F 37% 29.99 in 10.0 mi NW 10.4 mph 17.3 mph N/A   Mostly Cloudy
2:55 PM 61.0 °F 34.9 °F 38% 29.98 in 10.0 mi WNW 8.1 mph 17.3 mph N/A   Mostly Cloudy
3:15 PM 59.2 °F 34.5 °F 40% 29.98 in 10.0 mi NW 8.1 mph 18.4 mph N/A   Mostly Cloudy
3:35 PM 58.8 °F 35.8 °F 42% 29.98 in 10.0 mi NNW 4.6 mph - N/A   Overcast
3:55 PM 59.2 °F 35.8 °F 42% 29.97 in 10.0 mi NW 8.1 mph - N/A   Overcast
4:15 PM 58.6 °F 36.0 °F 43% 29.97 in 10.0 mi North 8.1 mph - N/A   Overcast
4:35 PM 58.8 °F 36.5 °F 43% 29.97 in 10.0 mi NNW 6.9 mph - N/A   Overcast
4:55 PM 60.4 °F 35.6 °F 40% 29.97 in 10.0 mi West 11.5 mph 16.1 mph N/A   Overcast
5:15 PM 61.0 °F 36.7 °F 40% 29.96 in 10.0 mi North 8.1 mph - N/A   Overcast
5:35 PM 59.4 °F 36.3 °F 42% 29.96 in 10.0 mi North 4.6 mph - N/A   Overcast
6:15 PM 60.4 °F 33.8 °F 37% 29.97 in 10.0 mi NNW 3.5 mph 18.4 mph N/A   Mostly Cloudy
6:35 PM 59.9 °F 36.3 °F 41% 29.97 in 10.0 mi North 5.8 mph - N/A   Overcast
7:15 PM 57.6 °F 34.2 °F 41% 29.98 in 10.0 mi NW 8.1 mph - N/A   Overcast
7:35 PM 56.3 °F 35.1 °F 45% 29.98 in 10.0 mi NW 9.2 mph - N/A   Mostly Cloudy
7:55 PM 55.4 °F 35.1 °F 46% 29.99 in 10.0 mi NW 6.9 mph - N/A   Mostly Cloudy
8:15 PM 54.5 °F 34.9 °F 48% 29.99 in 10.0 mi NW 5.8 mph - N/A   Scattered Clouds
8:35 PM 54.0 °F 35.1 °F 49% 30.00 in 10.0 mi NNW 4.6 mph - N/A   Scattered Clouds
8:55 PM 54.1 °F 34.9 °F 48% 30.00 in 10.0 mi NNW 8.1 mph - N/A   Mostly Cloudy
9:15 PM 53.6 °F 35.1 °F 50% 30.00 in 10.0 mi NW 6.9 mph - N/A   Overcast
9:35 PM 52.9 °F 35.1 °F 51% 30.01 in 10.0 mi NW 6.9 mph - N/A   Mostly Cloudy
9:55 PM 52.3 °F 35.1 °F 52% 30.01 in 10.0 mi Calm Calm - N/A   Mostly Cloudy
10:15 PM 52.7 °F 32.9 °F 47% 30.02 in 10.0 mi West 6.9 mph 16.1 mph N/A   Scattered Clouds
10:35 PM 52.7 °F 32.0 °F 45% 30.02 in 10.0 mi WNW 9.2 mph 18.4 mph N/A   Scattered Clouds
10:55 PM 52.0 °F 32.0 °F 47% 30.03 in 10.0 mi NW 5.8 mph - N/A   Clear
11:15 PM 51.1 °F 32.0 °F 48% 30.03 in 10.0 mi NW 5.8 mph - N/A   Scattered Clouds
11:35 PM 50.7 °F 31.8 °F 48% 30.03 in 10.0 mi WNW 3.5 mph - N/A   Scattered Clouds
11:55 PM 50.0 °F 31.6 °F 49% 30.03 in 10.0 mi NNW 3.5 mph - N/A   Clear